Regional Weather Roundup
Issued by NWS State College, PA

Home | Current Version | Previous Version | Text Only | Print | Product List | Glossary On
Versions: 1 2 3 4 5 6 7 8 9 10 11 12 13 14 15 16 17 18 19 20 21 22 23 24 25 26 27 28 29 30 31 32 33 34 35 36 37 38 39 40 41 42 43 44 45 46 47 48 49 50
000
ASUS41 KCTP 282003
RWRCTP

REGIONAL WEATHER ROUNDUP
NATIONAL WEATHER SERVICE STATE COLLEGE PA
400 PM EDT THU AUG 28 2014

Note: "fair" indicates few or no clouds below 12,000 feet with no
significant weather and/or obstructions to visibility.

* = STATION THAT DOES NOT REPORT PRECIPITATION /E.G. RAIN...SNOW...ETC/
    THUNDER OR FOG.

PAZ002>004-007>009-013>016-020>023-029>032-282100-
WESTERN PENNSYLVANIA

CITY           SKY/WX    TMP DP  RH WIND       PRES   REMARKS
ERIE           SUNNY     69  48  47 NW7       30.12F
MEADVILLE      MOSUNNY   69  50  50 N7        30.12F
FRANKLIN*      SUNNY     70  48  46 NW8       30.12S
NEW CASTLE     FAIR      71  51  49 VRB7      30.12S
BEAVER COUNTY  MOSUNNY   72  52  49 N8        30.11F
BUTLER*        SUNNY     72  52  49 NW3       30.12S
PITTSBURGH INT MOSUNNY   73  52  47 NW9G17    30.10S
PITTSBURGH     SUNNY     73  50  44 NW7       30.09S
INDIANA*       SUNNY     72  52  49 W9        30.13S
LATROBE        MOSUNNY   72  55  56 NW12      30.10S
WASHINGTON CO* MOSUNNY   73  55  53 N8        30.11F
$$

PAZ004>006-010>012-017>019-024>028-033>037-041-042-045-046-049>053-282100-
CENTRAL PENNSYLVANIA

CITY           SKY/WX    TMP DP  RH WIND       PRES   REMARKS
BRADFORD       SUNNY     66  47  50 N13       30.10S
DUBOIS         MOSUNNY   70  51  51 NW12      30.08S
CLEARFIELD     SUNNY     73  49  42 W9        30.07S
JOHNSTOWN      SUNNY     68  48  48 NW13G18   30.10S
ALTOONA        SUNNY     73  51  46 N10       30.06S
STATE COLLEGE  MOSUNNY   72  50  46 NW12      30.04
WILLIAMSPORT   SUNNY     77  49  37 NW9G21    29.99R
SELINSGROVE    SUNNY     77  53  43 N8        30.00S
FT INDIANTOWN  SUNNY     76  51  40 NW5       29.99S
CAPITAL CITY   MOSUNNY   78  53  41 NW10G18   29.98S
HARRISBURG     MOSUNNY   79  55  43 NW8       29.97S
YORK           MOSUNNY   78  56  46 NW13G20   29.98S
$$

PAZ038>040-043-044-047-048-054-055-060>062-067>071-282100-
EASTERN PENNSYLVANIA

CITY           SKY/WX    TMP DP  RH WIND       PRES   REMARKS
SCRANTON       SUNNY     73  51  46 NW13      29.99R
MOUNT POCONO   PTSUNNY   68  48  48 N13G21    29.99S
ALLENTOWN      MOSUNNY   77  50  38 NW12      29.96S
QUAKERTOWN*    CLEAR     75  52  43 MISG      29.97S
READING        MOSUNNY   77  51  40 NW16G24   29.96F
LANCASTER      MOSUNNY   77  52  41 NW12G21   29.98R
COATESVILLE    PTCLDY    75  55  50 NW14G20   29.98S
POTTSTOWN      PTSUNNY   76  53  44 MISG      29.97S
BLUE BELL      SUNNY     77  54  44 W10G17    29.94S
DOYLESTOWN     SUNNY     77  50  38 NW12G21   29.94S
WILLOW GROVE   NOT AVBL
NORTH PHILA    SUNNY     81  49  32 NW14      29.94S
PHILADELPHIA   MOSUNNY   80  53  39 NW18G25   29.94R
$$



USA.gov is the U.S. government's official web portal to all federal, state and local government web resources and services.